Simultaneous Nadir Overpasses (SNOs) Predictions

Prediction of SNOs between GOES-16 and METOP-C Satellite Orbit:

Table of predicted SNOs for the next 14.0 days since TLE Epoch: 4/30/2022
Index Date Time (GOES-16) GOES-16 Lat,Lon METOP-C Lat,Lon Distance(km) Time Diff (sec)
1 04/30/2022 14:39:28 0.07, -75.20 0.51, -77.30 239.11 80
2 05/01/2022 14:21:28 0.06, -75.20 -0.58, -72.30 330.12 80
3 05/03/2022 02:40:27 -0.06, -75.18 -0.47, -76.89 195.16 80
4 05/04/2022 02:17:08 -0.06, -75.18 0.67, -71.90 374.17 80
5 05/05/2022 14:35:58 0.05, -75.20 0.35, -76.46 143.41 80
6 05/06/2022 14:17:58 0.05, -75.21 -0.80, -71.47 426.25 80
7 05/08/2022 02:36:58 -0.04, -75.20 -0.25, -76.06 98.27 80
8 05/09/2022 02:13:38 -0.04, -75.21 0.90, -71.07 471.73 80
9 05/10/2022 14:32:28 0.04, -75.23 0.10, -75.63 44.59 80
10 05/13/2022 02:33:28 -0.03, -75.25 -0.00, -75.23 4.12 80
